Regional Weather Roundup
Issued by NWS Glasgow, MT

Home | Current Version | Previous Version | Text Only | Print | Product List | Glossary On
Versions: 1 2 3 4 5 6 7 8 9 10 11 12 13 14 15 16 17 18 19 20 21 22 23 24 25 26 27 28 29 30 31 32 33 34 35 36 37 38 39 40 41 42 43 44 45 46 47 48 49 50
000
ASUS45 KGGW 191115
RWRGGW
HOURLY WEATHER ROUNDUP FOR NORTHEAST MONTANA
NATIONAL WEATHER SERVICE GLASGOW MONTANA
500 AM MDT FRI SEP 19 2014

NOTE: "FAIR" INDICATES FEW OR NO CLOUDS BELOW 12,000 FEET WITH NO
SIGNIFICANT WEATHER AND/OR OBSTRUCTIONS TO VISISBILITY.

NORTHEAST MONTANA


CITY           SKY/WX    TMP DP  RH WIND       PRES   REMARKS
GLASGOW        CLEAR     56  48  74 NW5       29.65R
PLENTYWOOD       N/A     63  48  58 NW3         N/A
WOLF POINT     PTCLDY    58  52  80 SW12      29.63R
JORDAN           N/A     56  52  86 W8        29.71R
WINNETT          N/A     58  49  72 S3          N/A
SIDNEY         CLOUDY    66  55  68 W16       29.61R
GLENDIVE       CLOUDY    64  54  68 W9        29.66S
MALTA            N/A     55  46  71 SW6         N/A
SCOBEY           N/A     57  44  62 CALM      29.64R
OPHEIM           N/A     55  45  67 SW7       29.42R

FORT PECK REPORTS


CITY           SKY/WX    TMP DP  RH WIND       PRES   REMARKS
FORT PECK        N/A     62  49  62 W6          N/A
THE PINES        N/A     63  46  54 W3          N/A

SOUTHEAST MONTANA


CITY           SKY/WX    TMP DP  RH WIND       PRES   REMARKS
BILLINGS       MOCLDY    59  51  75 SW12      29.82S
MILES CITY     CLOUDY    62  53  72 W8        29.72R
BAKER          CLOUDY    64  55  72 W15       29.72R
LIVINGSTON     PTCLDY    60  47  61 W14       29.91R

CENTRAL MONTANA


CITY           SKY/WX    TMP DP  RH WIND       PRES   REMARKS
HAVRE          CLOUDY    61  47  59 SW15      29.71S
LEWISTOWN      MOCLDY    60  46  59 SW10      29.82F
GREAT FALLS    PTCLDY    59  42  53 SW15      29.80S
CUT BANK       MOCLDY    59  45  59 SW14      29.78R
HELENA         MOCLDY    64  42  44 SW13      29.89S
BUTTE          CLOUDY    49  43  80 CALM      30.02R
BOZEMAN        CLOUDY    48  46  93 SE5       29.95R

WESTERN MONTANA


CITY           SKY/WX    TMP DP  RH WIND       PRES   REMARKS
MISSOULA       CLOUDY    65  46  50 W8        29.94R
KALISPELL      NOT AVBL

NORTH DAKOTA


CITY           SKY/WX    TMP DP  RH WIND       PRES   REMARKS
WILLISTON      CLOUDY    65  53  65 W13       29.57R
DICKINSON      CLOUDY    64  54  69 W10       29.64R
MINOT          CLOUDY    65  54  67 SW9       29.52R
BISMARCK       CLOUDY    68  61  78 SW13      29.62R

SOUTHERN SASKATCHEWAN


CITY           SKY/WX    TMP DP  RH WIND       PRES   REMARKS
REGINA         MOCLDY    54  52  94 W9G17     29.54R
MOOSE JAW      CLOUDY    54  52  94 W6        29.55R
ESTEVAN        LGT RAIN N/A N/A N/A SW5         N/A
SWIFT CURRENT  CLOUDY    54  50  87 W13       29.60R



USA.gov is the U.S. government's official web portal to all federal, state and local government web resources and services.